Regional Weather Roundup
Issued by NWS

Home | Current Version | Previous Version | Graphics & Text | Print | Product List | Glossary On
Versions: 1 2 3 4 5 6 7 8 9 10 11 12 13 14 15 16 17 18 19 20 21 22 23 24 25 26 27 28 29 30 31 32 33 34 35 36 37 38 39 40 41 42 43 44 45 46 47 48 49 50
000
ASUS43 KDMX 161706
RWRIA

WEATHER ROUNDUP FOR IOWA
NATIONAL WEATHER SERVICE DES MOINES IA
1100 AM CST TUE JAN 16 2018

NOTE: "FAIR" INDICATES FEW OR NO CLOUDS BELOW 12,000 FEET WITH NO
SIGNIFICANT WEATHER AND/OR OBSTRUCTIONS TO VISIBILITY.

* - THESE STATIONS ARE NOT NWS STATIONS...THUS NOT UNDER NWS
QUALITY CONTROL.  THEY ALSO DO NOT REPORT WEATHER SUCH
AS PRECIPITATION OR FOG.

IAZ001>003-012>014-020>022-031>034-043>046-161800-
   NORTHWEST IOWA

CITY           SKY/WX    TMP DP  RH WIND       PRES   REMARKS
CARROLL *      PTSUNNY    0  -6  78 NW15      30.72S WCI -20
CHEROKEE *     CLOUDY     1  -6  74 N12       30.74F WCI -16
DENISON *      SUNNY      1  -6  71 NW12      30.75R WCI -15
LE MARS *      PTSUNNY   -2  -8  78 NW9       30.76F WCI -18
ORANGE CITY *  MOSUNNY    0  -6  78 NW9       30.71F WCI -16
SHELDON *      FLURRIES  -2  -8  78 NW9       30.70S WCI -18
SIOUX CITY     PTSUNNY   -1  -8  72 NW15      30.79R WCI -21
SPENCER        CLOUDY    -1  -9  68 N12       30.71S WCI -18
STORM LAKE *   SUNNY     -2  -8  78 NW16      30.69F WCI -23
$$

IAZ055>058-069>071-079>083-090>094-161800-
   SOUTHWEST IOWA

CITY           SKY/WX    TMP DP  RH WIND       PRES   REMARKS
ATLANTIC *     CLOUDY     1  -4  78 NW14      30.74S WCI -17
AUDUBON *      LGT SNOW   1  -4  78 NW12      30.71S WCI -15
CLARINDA *     MOSUNNY    1  -4  78 N17       30.79R WCI -19
COUNCIL BLFS * PTSUNNY    1  -4  78 NW15      30.74S WCI -18
CRESTON *      FLURRIES   0  -6  78 NW16      30.71R WCI -21
HARLAN  *      PTSUNNY    1  -4  78 NW15      30.77S WCI -18
LAMONI         PTSUNNY    3  -5  69 NW9       30.69S WCI -12
RED OAK *      MOSUNNY    3  -4  72 NW14      30.77R WCI -15
SHENANDOAH *   PTSUNNY    3  -4  72 N13       30.79S WCI -14
$$

IAZ047>049-059>061-072>074-084-161800-
   CENTRAL IOWA

CITY           SKY/WX    TMP DP  RH WIND       PRES   REMARKS
AMES           CLOUDY     2  -4  76 N14       30.71S HAZE    WCI -16
ANKENY *       CLOUDY     1  -6  71 NW15      30.74S WCI -18
BOONE *        CLOUDY     1  -4  78 NW15      30.69S WCI -18
CHARITON *     FLURRIES   1  -6  71 NW14      30.69S WCI -17
DES MOINES     LGT SNOW   2  -6  69 NW12      30.71S WCI -15
GRINNELL*      CLOUDY     3  -3  79 NW16      30.67S HAZE    WCI -17
KNOXVILLE *    LGT SNOW   1  -8  66 NW14      30.69S WCI -17
MARSHALLTOWN   CLOUDY     3  -2  79 NW16      30.68R WCI -16
NEWTON *       CLOUDY     1  -4  78 NW15      30.69S HAZE    WCI -18
PELLA *        LGT SNOW   4  -4  71 NW15      30.71S WCI -15
PERRY *        CLOUDY     0  -7  73 NW10      30.73S WCI -16
$$

IAZ004>006-015-016-023>025-035-036-161800-
   NORTH CENTRAL IOWA

CITY           SKY/WX    TMP DP  RH WIND       PRES   REMARKS
ALGONA *       MOSUNNY    0 N/A N/A NW9       30.69S FOG     WCI -16
CLARION *      CLOUDY     1  -2  85 N15       30.68F FOG     WCI -18
ESTHERVILLE    CLOUDY    -4  -8  83 N15       30.69S FOG     WCI -25
FORT DODGE *   CLOUDY     1  -5  75 NW8       30.70S HAZE    WCI -13
MASON CITY     PTSUNNY   -1  -7  75 NW16      30.67S WCI -21
FOREST CITY *  CLOUDY     3  -2  78 N14       30.67S HAZE    WCI -15
WEBSTER CITY * LGT SNOW   1  -4  78 N14       30.68S WCI -17
IOWA FALLS *   CLOUDY     3  -3  76 NW16      30.68R HAZE    WCI -16
$$

IAZ007>011-017>019-026>030-037>042-050>054-066-161800-
   NORTHEAST IOWA

CITY           SKY/WX    TMP DP  RH WIND       PRES   REMARKS
CEDAR RAPIDS   LGT SNOW   7   1  76 NW16      30.62R WCI -11
CHARLES CITY * CLOUDY     3  -2  78 NW14G22   30.65R WCI -15
CLINTON *      FLURRIES  14   8  77 NW12      30.58R WCI   0
DECORAH *      FLURRIES   7   3  85 NW13      30.59S WCI  -9
DUBUQUE        CLOUDY    10   4  76 N13       30.56S WCI  -5
MONTICELLO *   PTSUNNY   12   5  73 NW10      30.60S WCI  -1
OELWEIN *        N/A      7   3  85 NW15G21   30.62S WCI -11
WATERLOO       CLOUDY     5  -2  72 NW14      30.66R WCI -12
$$

IAZ064-065-067-068-078-161800-
   EAST CENTRAL IOWA

CITY           SKY/WX    TMP DP  RH WIND       PRES   REMARKS
DAVENPORT        N/A     12   4  70 NW13      30.61R WCI  -3
IOWA CITY      CLOUDY     8  -1  66 NW14      30.66R WCI  -8
MT. PLEASANT * LGT SNOW   7   0  72 NW12G17   30.66R WCI  -9
MUSCATINE *    CLOUDY     9   1  72 NW9       30.66S WCI  -5
QUAD CITIES    CLOUDY    13   6  74 W12       30.60S WCI  -1
$$

IAZ062-063-075>077-085>089-095>099-161800-
   SOUTHEAST IOWA

CITY           SKY/WX    TMP DP  RH WIND       PRES   REMARKS
BURLINGTON     CLOUDY     7  -1  70 NW9       30.64R WCI  -7
FAIRFIELD *    PTSUNNY    3  -4  72 NW17      30.66S WCI -17
FORT MADISON * LGT SNOW   3   0  85 NW15      30.66R WCI -15
KEOKUK *       PTSUNNY    5  -4  66 NW8       30.67R WCI  -8
OSKALOOSA *    LGT SNOW   3  -2  77 NW17      30.69R WCI -17
OTTUMWA        CLOUDY     3  -5  69 NW15      30.68R WCI -16
WASHINGTON *   PTSUNNY    5   0  78 NW14      30.67R WCI -12
$$

ABBREVIATIONS USED IN REMARKS
   TC - TEMPERATURES IN CELSIUS
  WCI - WIND CHILL INDEX
   HX - HEAT INDEX
  VSB - VISIBILITY
$$





USA.gov is the U.S. government's official web portal to all federal, state and local government web resources and services.